Weather Roundup
Issued by NWS Springfield, MO

Home | Current Version | Previous Version | Text Only | Print | Product List | Glossary On
Versions: 1 2 3 4 5 6 7 8 9 10 11 12 13 14 15 16 17 18 19 20 21 22 23 24 25 26 27 28 29 30 31 32 33 34 35 36 37 38 39 40 41 42 43 44 45 46 47 48 49 50
000
NZUS99 KSGF 291259
HRRSGF

HOURLY WEATHER
NATIONAL WEATHER SERVICE SPRINGFIELD MO
700 AM CST THU JAN 29 2015

......SGF CWA......

CITY           SKY/WX    TMP DP  RH WIND       PRES   REMARKS
SPRINGFIELD    CLOUDY    46  37  71 N16G24    30.08R
JOPLIN         MOCLDY    46  36  68 N16G29    30.15R
WEST PLAINS    CLEAR     47  36  65 NW12      30.01R
ROLLA          CLOUDY    41  33  73 NW25G38   30.02R
OSAGE BEACH    CLOUDY    45  32  61 NW9G24    30.09R
BRANSON        PTCLDY    48  36  61 NW12G20   30.08R

......SURROUNDING SGF CWA......

CITY           SKY/WX    TMP DP  RH WIND       PRES   REMARKS
CHANUTE        CLOUDY    41  32  70 NW20G30   30.21R
PARSONS        CLOUDY    43  33  68 N25G36    30.21R
COFFEYVILLE    MOCLDY    46  35  65 N21G30    30.19R
EMPORIA        CLOUDY    39  29  67 N18G32    30.23R WCI  30
SILOAM SPRINGS PTCLDY    46  30  53 N14       30.15R
HARRISON AR    CLEAR     49  35  58 NW6       30.07R
NEAR YELLVILLE CLEAR     54  34  47 NW12      30.04R

......KANSAS AND MISSOURI......

CITY           SKY/WX    TMP DP  RH WIND       PRES   REMARKS
KANSAS CTY INT CLOUDY    37  30  75 NW15      30.19R WCI  28
DOWNTOWN KC    CLOUDY    40  30  67 N14G21    30.19R WCI  32
COLUMBIA       CLOUDY    40  32  73 NW31G38   30.07R WCI  28
SEDALIA        CLOUDY    40  33  76 NW28G37   30.13R WCI  29
ST JOSEPH      CLOUDY    37  29  72 N24G35    30.21R WCI  26
ST LOUIS       CLOUDY    43  34  70 NW22G39   29.96R
SPIRIT OF STL  CLOUDY    42  32  67 W25G36    30.00R
KIRKSVILLE     CLOUDY    37  31  78 NW13G23   30.06R WCI  29
WICHITA        MOCLDY    42  30  62 N22G32    30.27R
TOPEKA         CLOUDY    39  28  64 N18G26    30.26R WCI  30
OLATHE         CLOUDY    38  30  73 N17G31    30.19R WCI  28

......TENNESSEE......

CITY           SKY/WX    TMP DP  RH WIND       PRES   REMARKS
MEMPHIS        CLOUDY    55  42  61 SW13G21   30.04R
NASHVILLE      CLOUDY    50  32  50 S21G35    30.03F

......ARKANSAS.......

CITY           SKY/WX    TMP DP  RH WIND       PRES   REMARKS
FAYETTEVILLE   PTCLDY    48  35  60 NW8       30.13R
FT SMITH       CLEAR     47  38  71 W8        30.12R
LITTLE ROCK    MOCLDY    56  43  61 SW13      30.05R

......OKLAHOMA.......

CITY           SKY/WX    TMP DP  RH WIND       PRES   REMARKS
TULSA          CLOUDY    51  35  54 N13       30.19R
PONCA CITY     CLOUDY    46  34  62 N17       30.27R
MCALESTER      PTCLDY    50  35  56 N8        30.17R
OKLAHOMA CITY  PTCLDY    50  33  52 N17       30.22R

......IOWA............

CITY           SKY/WX    TMP DP  RH WIND       PRES   REMARKS
DES MOINES     DRIZZLE   35  30  82 N22G31    30.10R WCI  23
QUAD CITIES    CLOUDY    34  29  82 NW17G25   29.91R WCI  23

......ILLINOIS........

CITY           SKY/WX    TMP DP  RH WIND       PRES   REMARKS
QUINCY         CLOUDY    37  30  75 NW21G29   29.98R WCI  26
CHICAGO        CLOUDY    35  28  75 NW10      29.72S WCI  27




USA.gov is the U.S. government's official web portal to all federal, state and local government web resources and services.